Location: Unspecified
(0.0000°N, 0.0000°E)
Time: 07:06:43
(UTC+00:00)

USA 234 - Pass Details

Date: 27 January 2013
Orbit: 1099 x 1108 km, 123.0° (Epoch: 26 August)

Event Time Altitude Azimuth Distance (km) Brightness Sun altitude
Rises 19:43:59 0° 143° (SE) 3,924 6.0 -21.6°
Reaches altitude 10° 19:46:28 10° 143° (SE) 2,965 5.3 -22.2°
Maximum altitude 19:53:02 87° 55° (NE) 1,111 3.1 -23.7°
Drops below altitude 10° 19:59:35 10° 325° (NW) 2,959 5.7 -25.2°
Sets 20:02:04 0° 325° (NW) 3,915 6.3 -25.8°
